Wind_Speed
72 69 70 74 77 81 84 83 79 83 98 92 90 82 88 89 93 92 100 104 89 88 84 82 76 70 66 71 73 74 64 59 45 36 30 30 36 42 48 52 59 73 83 92 100 105 106
81 83 81 78 84 84 85 83 87 87 97 95 90 89 94 92 93 95 104 103 94 84 85 81 76 69 69 72 74 75 58 52 42 35 28 28 34 43 50 56 61 71 75 86 95 105 108
96 100 92 88 89 89 90 91 97 101 105 102 90 91 90 94 93 95 104 98 87 83 85 80 75 69 70 73 75 70 55 46 38 34 25 27 34 46 53 56 63 77 80 81 98 101 104
94 95 93 98 93 91 94 99 102 107 103 100 91 86 89 92 94 95 101 96 90 82 84 75 75 69 70 74 73 64 55 43 37 32 23 25 34 46 54 56 65 74 79 84 89 95 102
106 107 113 114 108 103 104 106 104 96 91 89 89 91 90 92 95 95 94 92 85 80 83 73 71 67 71 72 71 60 54 41 38 28 22 25 33 45 55 57 67 74 77 84 91 97 103
117 122 119 117 115 111 108 104 97 88 95 94 91 92 91 93 91 89 88 89 80 78 80 72 68 66 69 71 66 59 51 39 34 24 19 25 33 46 58 60 65 64 71 81 87 94 96
88 101 112 114 108 111 107 102 98 98 97 99 98 93 85 86 82 83 79 80 76 78 76 73 67 67 68 68 60 59 48 36 27 17 15 26 35 44 53 59 66 62 73 81 83 92 97
75 85 85 101 101 103 101 98 101 103 98 99 96 83 74 74 74 76 76 73 71 76 72 70 66 67 69 68 62 57 42 33 23 11 11 25 38 44 47 53 59 67 74 79 86 93 98
72 80 79 80 73 74 71 70 78 82 87 91 87 77 66 71 70 65 64 65 66 69 69 69 68 66 69 64 64 56 41 30 19 7 8 27 36 45 54 59 59 66 71 79 85 89 90
64 66 76 84 80 69 57 60 66 72 76 74 69 62 62 60 51 56 58 58 63 66 66 65 65 64 67 62 64 57 39 28 18 6 7 24 31 37 43 56 61 65 71 78 80 85 87
71 69 62 74 76 75 69 57 55 53 49 54 47 48 45 44 42 51 53 53 60 62 62 61 61 60 64 64 63 57 40 27 16 7 7 19 32 41 49 53 59 65 73 77 78 81 88
82 72 59 56 67 73 71 66 55 49 46 44 40 41 36 35 40 46 48 50 56 57 58 58 55 57 59 62 62 52 39 26 17 7 9 19 30 40 48 54 60 69 77 79 83 83 83
87 77 57 52 60 69 73 65 69 57 45 43 39 35 29 30 38 41 43 47 49 52 55 53 50 54 53 57 56 50 40 25 15 8 10 19 31 39 46 56 65 71 76 80 77 82 83
78 69 55 50 55 74 72 71 73 59 50 43 34 30 28 27 37 36 38 43 44 46 51 51 46 49 50 51 53 49 43 27 16 10 4 17 27 36 46 53 61 71 73 71 71 73 80
72 58 51 47 50 68 73 74 73 60 52 39 33 26 27 29 34 33 34 39 39 41 44 48 44 45 46 52 52 49 42 30 16 10 5 7 26 32 41 48 55 60 57 61 66 66 68
60 51 54 50 61 72 74 77 76 69 58 42 35 27 31 31 31 27 30 34 33 35 39 42 42 42 46 47 51 49 46 35 18 9 5 3 10 31 40 45 51 55 56 58 58 59 59
51 50 54 59 61 67 72 73 75 66 55 45 36 31 32 32 27 23 26 28 28 30 34 37 41 43 47 51 47 46 44 37 25 11 5 4 4 12 29 42 47 51 56 55 58 56 52
46 43 46 47 61 62 60 64 65 62 45 48 42 37 34 28 24 20 21 23 23 27 29 28 38 43 47 53 51 47 44 38 26 16 8 4 4 7 17 31 41 48 53 57 56 60 57
38 33 32 39 61 60 59 58 55 55 54 47 39 40 34 28 22 18 18 20 18 23 26 26 33 38 45 49 52 48 45 43 34 26 16 7 1 4 7 20 29 42 47 51 53 55 55
27 19 20 41 55 58 56 56 55 60 57 46 41 37 34 27 22 18 16 16 15 19 23 25 31 36 42 46 51 51 46 43 40 35 25 15 5 2 6 10 17 29 37 44 50 55 59
18 11 25 49 53 55 50 57 58 63 57 48 43 39 33 29 23 19 15 13 12 15 20 23 31 37 40 44 48 55 54 44 37 36 31 23 15 6 1 7 10 17 24 35 47 50 54
11 16 35 52 61 53 54 57 67 63 59 50 46 40 33 29 24 18 14 10 10 12 17 19 29 35 40 46 51 53 54 54 45 39 35 31 24 15 7 2 8 13 17 21 28 38 48
9 22 38 53 62 59 57 64 68 62 54 51 48 41 37 30 25 19 14 9 7 10 16 18 23 30 34 43 49 54 54 54 56 51 44 39 35 28 21 14 8 6 13 19 23 27 31
13 30 42 60 62 59 57 72 69 59 54 52 47 43 36 32 25 20 15 9 5 7 13 16 19 26 30 36 39 47 51 52 54 54 51 45 43 40 35 28 24 16 14 13 18 24 31
18 33 41 55 55 55 68 74 66 64 57 49 46 42 37 33 27 21 15 9 4 5 10 13 16 21 28 30 34 38 44 49 50 51 47 46 47 44 40 32 27 27 21 16 12 14 23
30 46 49 59 60 64 70 67 62 56 51 49 46 40 37 33 27 21 15 11 6 5 8 11 13 17 22 28 32 36 40 40 46 47 46 45 41 38 39 39 32 28 29 26 24 24 23
34 45 49 54 59 64 74 72 61 55 50 47 43 42 37 32 26 21 17 13 8 6 6 8 12 16 20 26 31 32 38 41 45 44 47 49 45 43 38 35 39 36 35 39 37 31 29
37 49 54 58 57 71 68 66 62 56 51 45 42 41 36 30 26 21 18 14 10 8 5 6 9 14 19 23 29 34 37 43 44 45 46 45 49 50 46 41 39 37 40 39 31 32 28
49 56 64 64 69 68 66 63 61 56 52 48 44 41 36 32 26 22 20 15 11 10 6 7 8 11 17 22 26 30 34 40 47 47 47 49 46 53 54 49 49 48 51 44 47 39 34
Wind_Direction
280 277 278 280 284 281 285 291 292 294 299 300 301 300 303 304 308 313 315 318 317 318 321 322 324 327 332 330 329 328 323 313 302 297 285 262 238 224 216 215 215 209 210 210 209 213 214
278 279 278 277 282 280 283 284 290 288 293 299 299 298 301 304 306 309 312 315 316 315 320 321 325 330 332 333 331 327 320 316 306 299 288 257 237 217 211 209 210 210 208 207 208 212 213
271 274 273 272 274 276 280 283 287 288 291 293 295 295 298 303 304 307 310 312 315 315 318 322 327 332 334 333 333 325 323 318 309 300 284 253 230 212 205 208 206 206 208 208 206 210 212
269 269 267 272 270 268 273 279 287 286 286 289 291 293 298 297 302 306 307 310 315 314 317 323 328 334 336 334 333 328 327 322 316 304 278 245 221 210 202 202 205 205 206 204 206 210 213
268 267 270 273 272 267 271 276 281 279 281 284 288 290 293 294 298 302 304 308 313 312 315 324 329 336 337 335 336 335 331 328 320 305 276 238 216 205 197 199 202 207 204 202 205 207 211
270 270 269 268 270 269 272 273 273 274 280 281 284 288 292 296 296 298 302 306 311 313 315 324 329 338 338 337 337 343 335 331 323 306 273 230 207 201 195 196 204 205 204 203 206 207 214
274 272 269 267 268 269 268 269 268 271 273 279 279 284 287 291 293 296 299 304 310 312 315 324 331 339 341 339 342 347 341 336 327 314 259 215 197 200 198 195 198 200 199 201 205 207 206
273 270 267 263 268 268 267 265 264 268 269 272 276 278 282 286 290 294 299 301 310 310 317 324 333 340 342 340 349 350 348 340 334 328 236 200 189 192 188 195 200 196 199 198 203 208 211
277 278 267 259 261 264 263 257 261 265 265 268 270 273 275 281 284 292 296 301 308 311 319 325 333 342 342 346 353 352 353 346 349 353 223 186 186 187 187 190 198 198 199 201 203 211 214
283 280 274 259 255 255 248 250 255 257 260 264 264 265 272 276 281 289 296 301 306 311 320 325 334 344 343 354 356 356 355 353 1 30 179 184 179 183 191 193 196 200 201 202 205 210 215
284 284 274 260 253 251 246 236 249 249 251 255 254 260 264 272 280 285 291 301 304 312 320 326 336 344 344 358 355 355 358 358 9 51 158 184 178 181 188 192 195 197 202 203 205 210 215
294 289 273 264 252 243 246 238 230 230 242 247 247 252 260 266 273 280 289 298 304 313 319 328 337 345 348 1 357 358 2 2 17 68 138 173 181 185 189 193 192 201 202 206 209 212 216
290 290 281 257 250 238 233 231 227 225 227 234 239 243 252 258 270 278 287 294 304 315 318 328 340 347 354 5 0 4 6 5 13 34 155 171 182 185 194 195 196 200 207 210 213 213 217
288 287 282 253 245 233 233 226 223 215 217 226 228 224 243 250 262 271 284 292 305 315 320 330 342 351 1 7 3 7 9 11 11 37 177 175 184 190 194 204 204 206 214 216 218 218 219
291 283 271 252 239 230 225 223 219 214 218 215 210 208 231 240 254 266 281 291 306 314 324 333 344 355 9 8 8 10 14 14 11 44 69 185 180 197 202 207 210 219 222 224 223 226 223
291 273 256 238 233 226 227 221 220 215 214 202 191 201 222 231 244 261 276 291 305 318 330 336 343 358 7 18 13 13 16 17 19 25 74 92 214 195 205 211 216 221 227 228 233 234 234
292 280 256 240 235 230 230 226 222 231 218 188 180 195 214 221 236 251 272 290 306 320 337 339 342 357 9 17 21 17 17 18 19 29 66 110 195 232 217 211 217 222 226 231 232 238 239
292 286 266 250 236 235 226 223 224 220 197 175 174 193 210 216 227 242 269 287 310 322 341 349 345 355 10 15 23 23 19 24 29 29 46 97 114 203 223 223 220 223 225 231 234 236 238
294 290 270 242 228 230 227 220 221 212 171 165 173 192 205 211 216 234 261 284 311 323 345 355 353 359 7 15 22 29 24 24 28 36 41 50 103 146 213 228 229 229 233 238 238 240 240
292 282 240 219 222 222 226 213 201 182 164 160 175 192 202 203 209 225 251 278 308 328 349 357 2 3 8 14 20 31 30 25 27 28 33 37 51 181 190 210 234 238 237 238 238 241 242
284 233 208 204 211 213 218 208 185 171 157 166 180 192 195 196 202 219 243 272 303 338 349 358 10 8 8 11 20 23 29 34 31 26 26 29 38 35 229 216 217 226 235 240 239 244 245
264 201 196 202 206 214 201 185 175 162 160 171 182 187 190 194 198 213 238 261 298 349 345 4 11 12 11 9 14 18 23 27 34 35 27 28 31 31 24 298 237 232 231 236 244 248 250
221 196 195 195 199 199 188 178 166 157 165 175 180 179 186 191 196 208 225 245 292 348 349 8 12 15 14 17 12 12 19 23 24 28 32 31 26 22 24 22 358 311 257 245 243 245 249
200 188 191 188 199 199 191 175 159 159 172 179 180 178 182 189 192 206 216 230 273 345 354 5 5 17 20 20 21 22 18 19 21 24 24 27 34 30 26 20 23 13 360 323 287 265 258
185 181 183 189 197 194 174 167 161 166 175 177 179 179 181 186 193 202 209 221 255 323 354 2 4 10 18 18 23 26 26 20 22 21 26 26 28 31 29 25 24 14 6 345 311 299 283
182 181 184 191 194 184 172 161 163 171 170 180 175 178 183 186 194 199 199 213 232 281 345 348 4 4 17 16 19 24 24 25 24 25 25 27 29 26 26 29 28 15 358 344 334 324 313
188 187 187 189 192 183 173 165 164 169 175 183 177 180 183 185 194 198 200 212 224 255 323 339 357 353 4 13 14 20 23 26 26 26 30 25 20 18 20 20 21 15 6 1 356 348 328
195 189 186 184 182 173 165 161 164 171 176 183 184 184 187 188 193 199 205 213 228 248 300 330 342 344 352 1 6 13 19 20 22 20 22 19 20 18 14 8 11 7 12 11 8 348 330
191 183 175 179 173 168 165 165 168 172 177 181 187 183 187 191 197 204 213 216 231 246 271 307 324 339 340 356 356 4 13 16 17 16 14 14 14 14 13 9 7 10 5 358 4 359 1
Height
10737 10734 10732 10731 10729 10725 10722 10721 10720 10716 10713 10713 10708 10702 10694 10688 10680 10671 10660 10652 10640 10629 10618 10601 10587 10572 10563 10545 10527 10512 10500 10481 10470 10463 10461 10459 10462 10468 10478 10488 10495 10507 10521 10535 10558 10578 10603
10720 10717 10716 10715 10713 10711 10707 10706 10705 10704 10702 10700 10698 10690 10682 10678 10669 10662 10650 10641 10630 10620 10608 10590 10575 10562 10550 10532 10515 10497 10486 10467 10456 10449 10447 10446 10448 10457 10466 10474 10486 10498 10512 10530 10550 10565 10587
10701 10701 10700 10698 10697 10695 10691 10690 10689 10689 10687 10686 10686 10679 10672 10666 10659 10651 10641 10632 10622 10612 10598 10580 10565 10552 10539 10523 10505 10485 10470 10454 10444 10436 10434 10434 10437 10444 10456 10467 10478 10487 10502 10521 10535 10554 10576
10676 10677 10678 10677 10679 10677 10676 10675 10675 10672 10672 10672 10671 10668 10662 10657 10648 10642 10634 10623 10614 10604 10587 10573 10558 10543 10529 10511 10496 10474 10455 10441 10431 10426 10422 10423 10428 10434 10448 10460 10469 10478 10492 10511 10530 10550 10569
10651 10652 10652 10652 10655 10657 10659 10659 10660 10658 10658 10657 10657 10654 10649 10647 10641 10634 10626 10614 10605 10596 10577 10566 10551 10537 10521 10502 10484 10464 10443 10431 10421 10417 10412 10414 10421 10428 10441 10454 10459 10471 10488 10508 10525 10544 10556
10621 10622 10624 10624 10626 10633 10637 10641 10644 10641 10638 10639 10641 10640 10639 10636 10631 10624 10618 10608 10598 10587 10569 10559 10543 10532 10514 10496 10477 10454 10435 10424 10415 10409 10405 10409 10416 10424 10433 10446 10457 10474 10494 10506 10521 10540 10552
10590 10589 10592 10592 10599 10606 10615 10620 10621 10623 10622 10622 10624 10630 10629 10628 10622 10615 10608 10600 10592 10578 10565 10552 10534 10522 10505 10489 10471 10449 10429 10418 10409 10404 10402 10405 10414 10422 10433 10444 10452 10470 10485 10500 10515 10532 10539
10558 10558 10560 10564 10572 10579 10587 10596 10599 10603 10604 10603 10610 10615 10616 10615 10612 10607 10601 10592 10585 10570 10559 10545 10528 10518 10500 10482 10460 10443 10425 10415 10407 10402 10401 10404 10411 10419 10435 10444 10454 10464 10480 10495 10506 10517 10531
10532 10530 10532 10538 10544 10553 10563 10571 10573 10582 10583 10584 10593 10599 10602 10602 10602 10599 10594 10586 10577 10566 10556 10540 10523 10512 10496 10475 10455 10440 10423 10415 10407 10402 10401 10403 10411 10419 10432 10443 10452 10466 10481 10494 10502 10512 10523
10504 10504 10505 10510 10518 10527 10535 10550 10552 10561 10565 10568 10576 10583 10589 10590 10593 10589 10586 10582 10570 10563 10553 10538 10521 10510 10494 10471 10454 10439 10426 10417 10409 10404 10405 10407 10414 10425 10436 10442 10452 10464 10476 10487 10498 10508 10518
10478 10476 10479 10484 10491 10501 10509 10521 10532 10540 10547 10553 10563 10569 10575 10579 10584 10581 10579 10576 10566 10560 10550 10535 10520 10511 10494 10469 10453 10440 10426 10420 10413 10408 10408 10411 10416 10426 10436 10446 10456 10468 10475 10483 10492 10501 10508
10455 10451 10454 10460 10467 10477 10486 10499 10506 10520 10530 10539 10551 10559 10565 10570 10573 10573 10572 10569 10562 10557 10546 10531 10520 10509 10493 10472 10455 10441 10430 10422 10418 10413 10412 10415 10420 10427 10436 10446 10456 10459 10468 10477 10485 10495 10502
10432 10428 10429 10434 10439 10450 10459 10474 10482 10495 10509 10523 10538 10548 10555 10561 10564 10566 10567 10562 10561 10555 10543 10532 10518 10509 10494 10475 10459 10445 10432 10425 10420 10418 10417 10420 10424 10430 10438 10444 10451 10457 10463 10470 10478 10491 10500
10404 10404 10405 10407 10417 10426 10441 10453 10464 10476 10492 10509 10525 10537 10546 10552 10556 10560 10560 10557 10557 10552 10540 10529 10517 10509 10491 10477 10463 10447 10437 10427 10424 10422 10421 10423 10427 10431 10436 10444 10449 10453 10458 10467 10476 10487 10495
10378 10381 10380 10388 10396 10409 10424 10436 10450 10466 10480 10497 10514 10525 10536 10543 10549 10554 10553 10552 10554 10547 10539 10526 10514 10507 10494 10474 10463 10451 10440 10430 10425 10424 10424 10426 10430 10434 10438 10442 10449 10454 10462 10468 10475 10481 10492
10357 10359 10357 10364 10374 10389 10404 10420 10434 10448 10465 10484 10502 10514 10526 10534 10542 10546 10546 10549 10549 10544 10537 10525 10514 10506 10493 10482 10466 10453 10441 10434 10429 10426 10426 10427 10430 10431 10436 10441 10447 10453 10456 10464 10470 10476 10485
10337 10337 10340 10350 10360 10371 10387 10403 10419 10437 10455 10473 10490 10506 10517 10526 10534 10539 10541 10544 10544 10539 10535 10523 10511 10502 10490 10479 10473 10460 10448 10437 10431 10429 10428 10428 10429 10433 10436 10440 10445 10451 10454 10459 10467 10470 10478
10320 10320 10327 10340 10349 10358 10375 10394 10411 10435 10455 10467 10480 10498 10510 10521 10527 10532 10536 10539 10540 10534 10532 10526 10512 10500 10490 10481 10470 10460 10453 10446 10438 10432 10429 10429 10430 10433 10437 10440 10443 10448 10452 10455 10459 10466 10472
10308 10308 10317 10329 10337 10352 10368 10389 10408 10430 10441 10457 10475 10491 10503 10514 10521 10527 10530 10533 10534 10530 10529 10525 10515 10505 10494 10483 10475 10464 10455 10448 10442 10436 10433 10432 10431 10432 10435 10439 10443 10445 10446 10449 10456 10461 10468
10300 10301 10310 10320 10331 10348 10364 10385 10407 10419 10431 10450 10471 10486 10498 10507 10514 10522 10526 10529 10529 10526 10525 10520 10516 10506 10494 10486 10478 10468 10458 10450 10443 10439 10435 10433 10433 10433 10435 10436 10438 10442 10445 10450 10453 10455 10454
10294 10297 10305 10316 10329 10345 10362 10382 10398 10410 10424 10447 10466 10482 10493 10501 10509 10516 10520 10525 10525 10522 10520 10516 10513 10504 10494 10486 10479 10470 10463 10457 10450 10445 10441 10438 10434 10433 10433 10434 10435 10436 10440 10442 10443 10445 10450
10292 10296 10304 10314 10327 10343 10363 10382 10392 10406 10420 10441 10459 10475 10487 10495 10504 10511 10515 10520 10521 10519 10517 10515 10510 10503 10496 10485 10478 10473 10463 10458 10457 10451 10444 10440 10436 10435 10432 10433 10433 10434 10435 10436 10438 10441 10440
10289 10296 10304 10313 10328 10346 10363 10376 10384 10404 10426 10439 10454 10467 10480 10489 10498 10505 10511 10516 10516 10515 10514 10512 10510 10505 10498 10490 10482 10474 10468 10464 10455 10449 10450 10443 10437 10433 10432 10432 10432 10433 10432 10432 10432 10432 10431
10288 10297 10307 10316 10331 10346 10362 10375 10385 10403 10423 10438 10452 10463 10474 10484 10493 10500 10506 10512 10513 10512 10511 10510 10508 10506 10500 10495 10490 10481 10472 10467 10462 10458 10452 10444 10439 10435 10432 10432 10430 10431 10429 10429 10428 10426 10423
10290 10299 10311 10323 10336 10351 10365 10376 10389 10398 10418 10438 10450 10460 10471 10480 10488 10495 10502 10507 10509 10509 10509 10509 10507 10505 10500 10495 10492 10486 10479 10470 10465 10462 10458 10452 10444 10439 10437 10433 10430 10428 10424 10422 10418 10415 10413
10294 10302 10314 10326 10341 10355 10366 10377 10394 10413 10426 10438 10447 10458 10468 10477 10484 10491 10498 10503 10506 10506 10507 10507 10506 10504 10501 10495 10491 10486 10482 10477 10470 10464 10459 10455 10452 10447 10441 10437 10431 10429 10423 10418 10414 10410 10407
10298 10304 10317 10331 10346 10358 10364 10374 10397 10413 10427 10440 10446 10455 10465 10474 10481 10488 10494 10500 10503 10504 10505 10505 10503 10502 10498 10495 10490 10486 10482 10478 10471 10467 10460 10452 10451 10449 10442 10439 10434 10427 10421 10413 10408 10405 10399
10299 10311 10325 10340 10349 10359 10371 10382 10394 10411 10425 10438 10446 10454 10463 10471 10478 10484 10491 10496 10499 10500 10502 10502 10501 10499 10497 10494 10488 10484 10481 10476 10472 10467 10461 10456 10451 10446 10441 10437 10431 10427 10420 10415 10409 10402 10393
10307 10316 10330 10341 10353 10364 10376 10387 10397 10411 10423 10434 10444 10452 10460 10468 10474 10481 10487 10492 10495 10497 10498 10499 10499 10497 10495 10493 10489 10484 10480 10475 10469 10466 10461 10456 10449 10443 10438 10433 10426 10420 10413 10407 10401 10394 10388